COSMOGIRLSAT

Last updated on Wed Sep 11 2024 00:02:05 GMT+0000 (Coordinated Universal Time)

1 60953U 98067WT 24254.49401090 .00125056 00000+0 19740-2 0 9998 2 60953 51.6370 252.6025 0013124 345.7420 14.3197 15.52496671 1883
UTC large
Height (km)
Speed (km/s)
/
Latitude / Longitude
Inclination (degrees)
Orbital Period (minutes)
Azimuth
Elevation
Range (km)
Doppler Factor

Next 0 passes for location: London (51.5072 / 0.1276)

Sorry there are no passes over London.